Regional Weather Roundup
Issued by NWS

Home | Current Version | Previous Version | Text Only | Print | Product List | Glossary On
Versions: 1 2 3 4 5 6 7 8 9 10 11 12 13 14 15 16 17 18 19 20 21 22 23 24 25 26 27 28 29 30 31 32 33 34 35 36 37 38 39 40 41 42 43 44 45 46 47 48 49 50
000
ASUS42 KFFC 270903
RWRGA
WEATHER ROUNDUP FOR GEORGIA
NATIONAL WEATHER SERVICE PEACHTREE CITY GA
500 AM EDT WED AUG 27 2014

NOTE: "FAIR" INDICATES FEW OR NO CLOUDS BELOW 12,000 FEET WITH NO
SIGNIFICANT WEATHER AND/OR OBSTRUCTIONS TO VISIBILITY.

* = USE WITH CAUTION. THE STATIONS MARKED WITH AN ASTERISK MAY NOT
REPORT WEATHER SUCH AS PRECIPITATION, FOG, OR THUNDER AND ARE NOT
QUALITY CONTROLLED BY NWS.

THE REMARK "TC" DENOTES TEMPERATURE READING IN DEGREES CELSIUS.

GAZ001>058-271000-
NORTH GEORGIA

CITY           SKY/WX    TMP DP  RH WIND       PRES   REMARKS
ATLANTA        CLEAR     68  59  73 E5        30.08S
ATHENS         CLEAR     64  60  87 NE3       30.08S
CHAMBLEE       CLEAR     64  58  80 CALM      30.09S
PEACHTREE CITY CLEAR     60  58  92 CALM      30.09R
ROME           CLEAR     63  63 100 CALM      30.08S FOG
WEST ATLANTA   CLEAR     64  60  87 CALM      30.08S
GAINESVILLE    CLEAR     68  60  75 E3        30.11F
CARTERSVILLE   CLEAR     64  62  93 CALM      30.09S


CITY           SKY/WX    TMP DP  RH WIND       PRES   REMARKS
MARIETTA       CLEAR     68  61  79 NE2       30.09S
$$

GAZ059>098-102>109-271000-
CENTRAL GEORGIA

CITY           SKY/WX    TMP DP  RH WIND       PRES   REMARKS
AUGUSTA-BUSH   CLEAR     61  59  93 W3        30.03S
AUGUSTA-DANIEL CLEAR     72  61  68 NE6       30.05S
COLUMBUS       CLEAR     69  61  75 CALM      30.03S
MACON          CLEAR     62  62 100 W3        30.03S
ROBINS AFB     CLEAR     64  61  91 N3        30.03S


CITY           SKY/WX    TMP DP  RH WIND       PRES   REMARKS
LAGRANGE*      CLEAR     64  63  96 CALM      30.06S
SYLVANIA*      CLEAR     66  65  95 CALM      30.03R
$$

GAZ099>101-110>166-271000-
SOUTH GEORGIA

CITY           SKY/WX    TMP DP  RH WIND       PRES   REMARKS
SAVANNAH         N/A     70  64  81 MISG      30.00R
VALDOSTA       CLEAR     67  65  93 CALM      30.00R
ALMA           CLEAR     66  64  93 CALM      30.00S FOG
ST SIMONS      CLEAR     73  70  90 N5        29.97S
FT STEWART     CLEAR     66  63  90 N5        29.99R
ALBANY         CLEAR     68  66  93 CALM      30.02F
HUNTER AFB     CLEAR     72  65  80 N5        29.97S
MOODY AFB      CLEAR     68  66  92 N5        30.00R
BRUNSWICK      CLEAR     72  68  88 N3        29.99S


CITY           SKY/WX    TMP DP  RH WIND       PRES   REMARKS
BAINBRIDGE*    CLEAR     73  72  94 CALM      30.00S
MOULTRIE*      CLEAR     70  70 100 CALM      30.02S
VIDALIA*         N/A     68  66  94 CALM      30.02F
WAYCROSS*      CLEAR     71  70  99 CALM      30.00S
DOUGLAS*       CLEAR     70  66  88 CALM      30.02S
$$



USA.gov is the U.S. government's official web portal to all federal, state and local government web resources and services.